Bluefield, WV

10:55 AM EDT on May 28, 2017 (GMT -0400)
Mercer County

Weather History for KBLF - December, 2012

Change the Weather History Date:

Thursday, December 27, 2012

  Actual Average Record
Temperature  
Mean Temperature 28 °F 35 °F  
Max Temperature 31 °F 43 °F 74 °F (2015)
Min Temperature 24 °F 27 °F 9 °F (1977)
Degree Days  
Heating Degree Days 37 30  
Month to date heating degree days 548 740  
Since 1 July heating degree days 1620 1643  
Cooling Degree Days 0 0  
Month to date cooling degree days 0 0  
Year to date cooling degree days 1007 853  
Moisture  
Dew Point 22 °F    
Average Humidity 83    
Maximum Humidity 88    
Minimum Humidity 78    
Precipitation  
Precipitation T in 0.08 in 0.81 in (1990)
Month to date precipitation 2.94 2.55  
Year to date precipitation 43.32 39.27  
Snow  
Snow 0.10 in - - ()
Month to date snowfall 5.4  
Since 1 July snowfall 15.0  
Snow Depth 0.00 in    
Sea Level Pressure  
Sea Level Pressure 29.94 in    
Wind  
Wind Speed 14 mph (WNW)    
Max Wind Speed 29 mph    
Max Gust Speed 49 mph    
Visibility 7 miles    
Events Rain , Snow    
T = Trace of Precipitation, MM = Missing Value Source: NWS Daily Summary

Daily Weather History Graph

Daily Weather History Graph

Search for Another Location

Airport or City:

Trip Planner

Search our weather history database for the weather conditions in past years. The results will help you decide how hot, cold, wet, or windy it might be!

Date:

Astronomy

Dec. 27, 2012 Rise Set
Actual Time 7:37 AM EST 5:14 PM EST
Civil Twilight 7:08 AM EST 5:43 PM EST
Nautical Twilight 6:36 AM EST 6:16 PM EST
Astronomical Twilight 6:04 AM EST 6:48 PM EST
Moon 4:55 PM EST (12/27) 6:48 AM EST (12/27)
Length of Visible Light 10h 35m
Length of Day
9h 36m
Full, 100% of the Moon is Illuminated
Dec 27
Full
Dec 28
Full
Jan 4
Last Quarter
Jan 11
New
Jan 18
First Quarter

Hourly Weather History & Observations

Time (EST) Temp. Windchill Dew Point Humidity Pressure Visibility Wind Dir Wind Speed Gust Speed Precip Events Conditions
12:02 AM 30.2 °F 16.8 °F 26.6 °F 86% 29.66 in 4.0 mi WNW 23.0 mph 34.5 mph 0.00 in Snow Light Snow
12:52 AM 30.0 °F 16.9 °F 25.0 °F 82% 29.72 in 9.0 mi WNW 21.9 mph 36.8 mph 0.00 in   Overcast
1:52 AM 28.9 °F 14.8 °F 24.1 °F 82% 29.75 in 10.0 mi WNW 24.2 mph 35.7 mph 0.00 in Rain Light Freezing Rain
2:06 AM 28.4 °F 14.1 °F 24.8 °F 86% 29.72 in 7.0 mi WNW 24.2 mph 36.8 mph 0.00 in Snow Light Snow
2:52 AM 28.0 °F 15.3 °F 23.0 °F 81% 29.78 in 7.0 mi WNW 18.4 mph 36.8 mph 0.00 in Snow Light Snow
3:16 AM 28.4 °F 15.4 °F 23.0 °F 80% 29.74 in 7.0 mi West 19.6 mph 32.2 mph 0.00 in Snow Light Snow
3:32 AM 28.4 °F 13.5 °F 23.0 °F 80% 29.75 in 8.0 mi NW 26.5 mph 46.0 mph 0.00 in Snow Light Snow
3:52 AM 28.0 °F 13.9 °F 23.0 °F 81% 29.80 in 8.0 mi WNW 23.0 mph 36.8 mph 0.00 in   Overcast
4:05 AM 28.4 °F 14.7 °F 23.0 °F 80% 29.76 in 6.0 mi WNW 21.9 mph 34.5 mph 0.00 in Snow Light Snow
4:52 AM 27.0 °F 11.0 °F 23.0 °F 85% 29.83 in 10.0 mi WNW 28.8 mph 49.5 mph 0.00 in   Overcast
4:59 AM 26.6 °F 11.7 °F 23.0 °F 86% 29.79 in 10.0 mi WNW 24.2 mph 44.9 mph N/A   Overcast
5:52 AM 27.0 °F 12.8 °F 21.0 °F 78% 29.87 in 10.0 mi WNW 21.9 mph 38.0 mph 0.00 in   Overcast
6:06 AM 26.6 °F 11.1 °F 21.2 °F 80% 29.83 in 10.0 mi WNW 26.5 mph 39.1 mph N/A   Overcast
6:50 AM 26.6 °F 13.4 °F 21.2 °F 80% 29.86 in 10.0 mi WNW 18.4 mph 26.5 mph N/A   Overcast
6:52 AM 27.0 °F 13.9 °F 21.9 °F 81% 29.91 in 10.0 mi WNW 18.4 mph 27.6 mph N/A   Overcast
7:52 AM 26.1 °F 12.7 °F 21.0 °F 81% 29.93 in 10.0 mi NW 18.4 mph 33.4 mph N/A   Overcast
8:52 AM 26.1 °F 12.0 °F 21.0 °F 81% 29.96 in 10.0 mi WNW 20.7 mph 29.9 mph N/A   Overcast
9:52 AM 26.1 °F 14.5 °F 21.9 °F 84% 30.00 in 10.0 mi NW 13.8 mph 20.7 mph N/A   Overcast
10:21 AM 26.6 °F 15.7 °F 21.2 °F 80% 29.94 in 6.0 mi WNW 12.7 mph 27.6 mph 0.00 in   Overcast
10:37 AM 26.6 °F 15.2 °F 21.2 °F 80% 29.94 in 3.0 mi WNW 13.8 mph 28.8 mph 0.00 in   Overcast
10:50 AM 26.6 °F 16.2 °F 23.0 °F 86% 29.95 in 2.5 mi WNW 11.5 mph 17.3 mph 0.00 in   Overcast
10:52 AM 26.1 °F 15.6 °F 23.0 °F 88% 30.00 in 2.5 mi WNW 11.5 mph - 0.00 in   Overcast
11:02 AM 26.6 °F 16.2 °F 21.2 °F 80% 29.95 in 1.5 mi WNW 11.5 mph 21.9 mph N/A   Overcast
11:21 AM 26.6 °F 16.8 °F 23.0 °F 86% 29.94 in 2.0 mi WNW 10.4 mph 19.6 mph N/A   Overcast
11:28 AM 26.6 °F 15.7 °F 21.2 °F 80% 29.94 in 1.0 mi WNW 12.7 mph 27.6 mph N/A   Overcast
11:41 AM 26.6 °F 16.2 °F 23.0 °F 86% 29.94 in 1.5 mi WNW 11.5 mph 19.6 mph 0.00 in Snow Light Snow
11:52 AM 26.1 °F 13.1 °F 21.9 °F 84% 30.00 in 2.0 mi WNW 17.3 mph 24.2 mph 0.00 in   Overcast
12:25 PM 26.6 °F 13.8 °F 21.2 °F 80% 29.94 in 5.0 mi West 17.3 mph 26.5 mph N/A   Overcast
12:52 PM 25.0 °F 12.6 °F 21.9 °F 88% 30.00 in 6.0 mi WNW 15.0 mph 24.2 mph N/A   Overcast
1:10 PM 24.8 °F 12.9 °F 21.2 °F 86% 29.94 in 8.0 mi WNW 13.8 mph 24.2 mph N/A   Overcast
1:52 PM 25.0 °F 13.1 °F 21.9 °F 88% 30.00 in 9.0 mi WNW 13.8 mph 20.7 mph N/A   Overcast
2:52 PM 25.0 °F 14.8 °F 21.9 °F 88% 30.02 in 9.0 mi WNW 10.4 mph 19.6 mph N/A   Overcast
3:52 PM 25.0 °F 14.2 °F 21.9 °F 88% 30.05 in 6.0 mi WNW 11.5 mph - N/A   Overcast
4:52 PM 25.0 °F 14.2 °F 21.0 °F 85% 30.08 in 2.5 mi WNW 11.5 mph 16.1 mph N/A   Overcast
5:09 PM 24.8 °F 14.0 °F 21.2 °F 86% 30.00 in 3.0 mi WNW 11.5 mph 19.6 mph N/A   Overcast
5:52 PM 25.0 °F 16.3 °F 21.0 °F 85% 30.10 in 9.0 mi WNW 8.1 mph 19.6 mph 0.00 in   Overcast
6:03 PM 24.8 °F 16.1 °F 21.2 °F 86% 30.02 in 10.0 mi NW 8.1 mph 16.1 mph N/A   Overcast
6:52 PM 25.0 °F 16.3 °F 21.0 °F 85% 30.12 in 9.0 mi WNW 8.1 mph - N/A   Overcast
7:52 PM 24.1 °F 17.0 °F 21.0 °F 88% 30.12 in 10.0 mi NW 5.8 mph - N/A   Overcast
8:39 PM 24.8 °F 19.1 °F 19.4 °F 80% 30.04 in 10.0 mi NW 4.6 mph - N/A   Overcast
8:52 PM 24.1 °F 18.2 °F 19.9 °F 84% 30.11 in 9.0 mi Variable 4.6 mph - N/A   Overcast
9:47 PM 24.8 °F 17.9 °F 19.4 °F 80% 30.05 in 8.0 mi WNW 5.8 mph - N/A   Overcast
9:52 PM 24.1 °F 17.0 °F 21.0 °F 88% 30.13 in 8.0 mi WNW 5.8 mph - N/A   Overcast
10:52 PM 25.0 °F 19.3 °F 21.0 °F 85% 30.12 in 6.0 mi NW 4.6 mph - N/A   Overcast
11:52 PM 25.0 °F 20.7 °F 21.0 °F 85% 30.12 in 8.0 mi NNW 3.5 mph - N/A   Overcast